| time (UTC) | temp F | wind direction | speed knots | gust knots | rain 1hr in | rain 24hr in | rain mn in | humidity % | barometer mb |
| 20260509055504 | 54 | 338 | 0.9 | 1.7 | 0.00 | 0.00 | 0.00 | 83 | 1017.5 |
| 20260509055004 | 54 | 0.0 | 1.7 | 0.00 | 0.00 | 0.00 | 83 | 1017.5 | |
| 20260509054004 | 54 | 0.0 | 1.7 | 0.00 | 0.00 | 0.00 | 82 | 1017.4 | |
| 20260509053504 | 54 | 0.0 | 0.9 | 0.00 | 0.00 | 0.00 | 82 | 1017.5 | |
| 20260509053009 | 54 | 0.0 | 0.9 | 0.00 | 0.00 | 0.00 | 82 | 1017.5 | |
| 20260509052504 | 54 | 0.0 | 0.9 | 0.00 | 0.00 | 0.00 | 81 | 1017.5 | |
| 20260509052004 | 54 | 0.0 | 1.7 | 0.00 | 0.00 | 0.00 | 81 | 1017.5 | |
| 20260509051504 | 55 | 0.0 | 0.9 | 0.00 | 0.00 | 0.00 | 81 | 1017.5 | |
| 20260509051024 | 55 | 0.0 | 0.9 | 0.00 | 0.00 | 0.00 | 80 | 1017.5 | |
| 20260509050504 | 55 | 0.0 | 0.9 | 0.00 | 0.00 | 0.00 | 80 | 1017.6 | |
| 20260509050044 | 55 | 0.0 | 0.9 | 0.00 | 0.00 | 0.00 | 80 | 1017.6 | |
| 20260509045504 | 55 | 0.0 | 0.9 | 0.00 | 0.00 | 0.00 | 79 | 1017.5 | |
| 20260509045004 | 55 | 0.0 | 1.7 | 0.00 | 0.00 | 0.00 | 79 | 1017.4 | |
| 20260509044504 | 56 | 0.0 | 0.9 | 0.00 | 0.00 | 0.00 | 78 | 1017.3 | |
| 20260509044004 | 56 | 0.0 | 0.9 | 0.00 | 0.00 | 0.00 | 78 | 1017.3 | |
| 20260509043504 | 56 | 0.0 | 0.9 | 0.00 | 0.00 | 0.00 | 78 | 1017.3 | |
| 20260509043004 | 56 | 0.0 | 0.9 | 0.00 | 0.00 | 0.00 | 78 | 1017.3 | |
| 20260509042504 | 56 | 0.0 | 1.7 | 0.00 | 0.00 | 0.00 | 78 | 1017.2 | |
| 20260509042024 | 56 | 0.0 | 1.7 | 0.00 | 0.00 | 0.00 | 78 | 1017.2 | |
| 20260509041504 | 57 | 0.0 | 0.9 | 0.00 | 0.00 | 0.00 | 78 | 1017.1 | |
| 20260509041004 | 57 | 45 | 0.9 | 1.7 | 0.00 | 0.00 | 0.00 | 78 | 1017.1 |
| 20260509040524 | 57 | 0.0 | 0.9 | 0.00 | 0.00 | 0.00 | 77 | 1017.1 | |
| 20260509040004 | 57 | 0.0 | 1.7 | 0.00 | 0.00 | 0.00 | 77 | 1017.0 | |
| 20260509035524 | 57 | 45 | 0.9 | 1.7 | 0.00 | 0.00 | 0.00 | 77 | 1017.1 |
| 20260509035004 | 57 | 45 | 0.9 | 1.7 | 0.00 | 0.00 | 0.00 | 77 | 1017.0 |
| 20260509034504 | 57 | 45 | 0.9 | 2.6 | 0.00 | 0.00 | 0.00 | 77 | 1017.1 |
| 20260509034004 | 58 | 45 | 0.9 | 4.3 | 0.00 | 0.00 | 0.00 | 77 | 1017.0 |
| 20260509033504 | 58 | 45 | 1.7 | 2.6 | 0.00 | 0.00 | 0.00 | 76 | 1016.9 |
| 20260509033004 | 58 | 45 | 0.9 | 2.6 | 0.00 | 0.00 | 0.00 | 76 | 1017.0 |
| 20260509032505 | 58 | 45 | 0.9 | 2.6 | 0.00 | 0.00 | 0.00 | 76 | 1016.9 |
| 20260509032024 | 58 | 45 | 1.7 | 2.6 | 0.00 | 0.00 | 0.00 | 76 | 1016.9 |
| 20260509031504 | 59 | 45 | 1.7 | 3.5 | 0.00 | 0.00 | 0.00 | 76 | 1016.9 |
| 20260509031024 | 59 | 45 | 0.9 | 2.6 | 0.00 | 0.00 | 0.00 | 76 | 1016.9 |
| 20260509030524 | 59 | 45 | 0.9 | 3.5 | 0.00 | 0.00 | 0.00 | 76 | 1016.8 |
| 20260509030004 | 59 | 45 | 0.9 | 2.6 | 0.00 | 0.00 | 0.00 | 76 | 1016.9 |
| 20260509025504 | 59 | 45 | 0.9 | 2.6 | 0.00 | 0.00 | 0.00 | 76 | 1016.8 |
| 20260509025024 | 59 | 45 | 1.7 | 3.5 | 0.00 | 0.00 | 0.00 | 77 | 1016.7 |
| 20260509024524 | 60 | 45 | 1.7 | 3.5 | 0.00 | 0.00 | 0.00 | 77 | 1016.7 |
| 20260509024044 | 60 | 45 | 0.9 | 3.5 | 0.00 | 0.00 | 0.00 | 78 | 1016.7 |
| 20260509023504 | 60 | 45 | 1.7 | 4.3 | 0.00 | 0.00 | 0.00 | 77 | 1016.6 |
| 20260509023004 | 60 | 45 | 1.7 | 3.5 | 0.00 | 0.00 | 0.00 | 77 | 1016.6 |
| 20260509022504 | 61 | 45 | 1.7 | 3.5 | 0.00 | 0.00 | 0.00 | 76 | 1016.6 |
| 20260509022003 | 61 | 45 | 1.7 | 3.5 | 0.00 | 0.00 | 0.00 | 75 | 1016.5 |
| 20260509021503 | 61 | 45 | 1.7 | 4.3 | 0.00 | 0.00 | 0.00 | 75 | 1016.4 |
| 20260509021003 | 61 | 45 | 1.7 | 6.1 | 0.00 | 0.00 | 0.00 | 75 | 1016.5 |
| 20260509020503 | 62 | 45 | 1.7 | 6.1 | 0.00 | 0.00 | 0.00 | 75 | 1016.4 |
| 20260509020003 | 62 | 45 | 2.6 | 6.1 | 0.00 | 0.00 | 0.00 | 75 | 1016.3 |
| 20260509015504 | 62 | 45 | 2.6 | 5.2 | 0.00 | 0.00 | 0.00 | 74 | 1016.4 |
| 20260509015004 | 62 | 45 | 1.7 | 4.3 | 0.00 | 0.00 | 0.00 | 75 | 1016.4 |
| 20260509014504 | 62 | 45 | 2.6 | 5.2 | 0.00 | 0.00 | 0.00 | 74 | 1016.5 |
| 20260509014024 | 63 | 45 | 1.7 | 6.1 | 0.00 | 0.00 | 0.00 | 74 | 1016.4 |
| 20260509013503 | 63 | 45 | 2.6 | 7.0 | 0.00 | 0.00 | 0.00 | 74 | 1016.5 |
| 20260509013004 | 63 | 45 | 2.6 | 7.8 | 0.00 | 0.00 | 0.00 | 74 | 1016.4 |
| 20260509012523 | 63 | 45 | 3.5 | 7.0 | 0.00 | 0.00 | 0.00 | 73 | 1016.5 |
| 20260509012003 | 64 | 45 | 2.6 | 7.0 | 0.00 | 0.00 | 0.00 | 72 | 1016.3 |
| 20260509011503 | 64 | 23 | 3.5 | 7.8 | 0.00 | 0.00 | 0.00 | 72 | 1016.5 |
| 20260509011004 | 64 | 45 | 3.5 | 6.1 | 0.00 | 0.00 | 0.00 | 72 | 1016.4 |
| 20260509010503 | 65 | 45 | 3.5 | 6.1 | 0.00 | 0.00 | 0.00 | 71 | 1016.5 |
| 20260509010004 | 65 | 45 | 3.5 | 7.0 | 0.00 | 0.00 | 0.00 | 71 | 1016.6 |
| 20260509005503 | 66 | 45 | 2.6 | 5.2 | 0.00 | 0.00 | 0.00 | 70 | 1016.5 |
| 20260509005003 | 66 | 45 | 2.6 | 6.1 | 0.00 | 0.00 | 0.00 | 70 | 1016.5 |
| 20260509004504 | 66 | 45 | 2.6 | 6.1 | 0.00 | 0.00 | 0.00 | 69 | 1016.6 |
| 20260509004024 | 67 | 45 | 2.6 | 6.1 | 0.00 | 0.00 | 0.00 | 69 | 1016.7 |
| 20260509003503 | 67 | 45 | 2.6 | 6.1 | 0.00 | 0.00 | 0.00 | 68 | 1016.6 |
| 20260509003003 | 67 | 45 | 2.6 | 6.1 | 0.00 | 0.00 | 0.00 | 67 | 1016.8 |
| 20260509002503 | 68 | 45 | 2.6 | 7.0 | 0.00 | 0.00 | 0.00 | 66 | 1016.7 |
| 20260509002004 | 68 | 45 | 2.6 | 6.1 | 0.00 | 0.00 | 0.00 | 66 | 1016.7 |
| 20260509001503 | 68 | 338 | 2.6 | 6.1 | 0.00 | 0.00 | 0.00 | 65 | 1016.8 |
| 20260509001004 | 67 | 338 | 3.5 | 7.8 | 0.00 | 0.00 | 0.00 | 67 | 1016.9 |
| 20260509000503 | 67 | 45 | 2.6 | 6.1 | 0.00 | 0.00 | 0.00 | 68 | 1016.8 |
| 20260509000004 | 67 | 45 | 2.6 | 7.8 | 0.00 | 0.00 | 0.00 | 69 | 1016.8 |
| 20260508235503 | 67 | 45 | 3.5 | 6.1 | 0.00 | 0.00 | 0.00 | 68 | 1016.7 |
| 20260508235023 | 67 | 45 | 2.6 | 7.8 | 0.00 | 0.00 | 0.00 | 68 | 1016.9 |
| 20260508234503 | 67 | 45 | 3.5 | 8.7 | 0.00 | 0.00 | 0.00 | 68 | 1016.8 |
| 20260508234003 | 67 | 45 | 3.5 | 9.6 | 0.00 | 0.00 | 0.00 | 68 | 1016.9 |
| 20260508233503 | 67 | 45 | 2.6 | 7.0 | 0.00 | 0.00 | 0.00 | 67 | 1017.0 |
| 20260508233023 | 67 | 45 | 2.6 | 7.0 | 0.00 | 0.00 | 0.00 | 68 | 1016.9 |
| 20260508232503 | 67 | 45 | 3.5 | 9.6 | 0.00 | 0.00 | 0.00 | 68 | 1017.0 |
| 20260508232003 | 67 | 45 | 3.5 | 7.8 | 0.00 | 0.00 | 0.00 | 68 | 1017.0 |
| 20260508231503 | 67 | 45 | 3.5 | 7.8 | 0.00 | 0.00 | 0.00 | 68 | 1017.0 |
| 20260508231003 | 67 | 45 | 3.5 | 7.8 | 0.00 | 0.00 | 0.00 | 67 | 1017.0 |
| 20260508230503 | 67 | 45 | 3.5 | 7.0 | 0.00 | 0.00 | 0.00 | 67 | 1017.1 |
| 20260508230003 | 68 | 45 | 2.6 | 9.6 | 0.00 | 0.00 | 0.00 | 67 | 1017.3 |
| 20260508225503 | 68 | 45 | 3.5 | 7.8 | 0.00 | 0.00 | 0.00 | 67 | 1017.3 |
| 20260508225003 | 68 | 338 | 3.5 | 11.3 | 0.00 | 0.00 | 0.00 | 66 | 1017.4 |
| 20260508224503 | 68 | 338 | 2.6 | 6.1 | 0.00 | 0.00 | 0.00 | 67 | 1017.4 |
| 20260508224003 | 68 | 45 | 3.5 | 7.0 | 0.00 | 0.00 | 0.00 | 66 | 1017.5 |
| 20260508223523 | 67 | 45 | 3.5 | 7.0 | 0.00 | 0.00 | 0.00 | 67 | 1017.5 |
| 20260508223003 | 67 | 45 | 3.5 | 8.7 | 0.00 | 0.00 | 0.00 | 69 | 1017.5 |
| 20260508222503 | 67 | 45 | 2.6 | 8.7 | 0.00 | 0.00 | 0.00 | 69 | 1017.7 |
| 20260508222023 | 66 | 45 | 3.5 | 8.7 | 0.00 | 0.00 | 0.00 | 69 | 1017.9 |
| 20260508221503 | 66 | 45 | 2.6 | 7.0 | 0.00 | 0.00 | 0.00 | 69 | 1017.9 |
| 20260508221003 | 66 | 45 | 3.5 | 9.6 | 0.00 | 0.00 | 0.00 | 69 | 1018.1 |
| 20260508220503 | 66 | 45 | 2.6 | 7.8 | 0.00 | 0.00 | 0.00 | 69 | 1018.0 |
| 20260508220003 | 66 | 45 | 2.6 | 7.0 | 0.00 | 0.00 | 0.00 | 70 | 1018.0 |
| 20260508215503 | 66 | 45 | 3.5 | 7.8 | 0.00 | 0.00 | 0.00 | 70 | 1018.1 |
| 20260508215023 | 66 | 45 | 2.6 | 7.0 | 0.00 | 0.00 | 0.00 | 70 | 1018.1 |
| 20260508214503 | 66 | 68 | 3.5 | 7.8 | 0.00 | 0.00 | 0.00 | 70 | 1018.3 |
| 20260508214003 | 66 | 45 | 3.5 | 7.8 | 0.00 | 0.00 | 0.00 | 69 | 1018.3 |
| 20260508213543 | 66 | 45 | 2.6 | 7.8 | 0.00 | 0.00 | 0.00 | 69 | 1018.3 |
| 20260508213003 | 66 | 45 | 3.5 | 7.0 | 0.00 | 0.00 | 0.00 | 69 | 1018.4 |
| 20260508212503 | 66 | 45 | 2.6 | 7.0 | 0.00 | 0.00 | 0.00 | 71 | 1018.5 |
| 20260508212003 | 65 | 45 | 3.5 | 7.8 | 0.00 | 0.00 | 0.00 | 70 | 1018.6 |
| 20260508211504 | 66 | 45 | 3.5 | 8.7 | 0.00 | 0.00 | 0.00 | 69 | 1018.6 |
| 20260508211023 | 66 | 45 | 3.5 | 7.8 | 0.00 | 0.00 | 0.00 | 71 | 1018.6 |
| 20260508210503 | 65 | 45 | 2.6 | 6.1 | 0.00 | 0.00 | 0.00 | 71 | 1018.8 |
| 20260508210003 | 65 | 68 | 3.5 | 7.8 | 0.00 | 0.00 | 0.00 | 72 | 1018.8 |
| 20260508205503 | 65 | 45 | 2.6 | 7.8 | 0.00 | 0.00 | 0.00 | 72 | 1019.0 |
| 20260508205023 | 64 | 45 | 3.5 | 7.8 | 0.00 | 0.00 | 0.00 | 73 | 1019.0 |
| 20260508204503 | 64 | 68 | 3.5 | 9.6 | 0.00 | 0.00 | 0.00 | 74 | 1019.0 |
| 20260508204003 | 64 | 45 | 3.5 | 8.7 | 0.00 | 0.00 | 0.00 | 73 | 1019.1 |
| 20260508203503 | 64 | 68 | 3.5 | 8.7 | 0.00 | 0.00 | 0.00 | 73 | 1019.1 |
| 20260508203022 | 64 | 45 | 2.6 | 7.0 | 0.00 | 0.00 | 0.00 | 74 | 1019.2 |
| 20260508202503 | 64 | 45 | 3.5 | 7.8 | 0.00 | 0.00 | 0.00 | 73 | 1019.3 |
| 20260508202003 | 64 | 68 | 3.5 | 7.8 | 0.00 | 0.00 | 0.00 | 73 | 1019.2 |
| 20260508201523 | 64 | 45 | 2.6 | 7.0 | 0.00 | 0.00 | 0.00 | 74 | 1019.2 |
| 20260508201003 | 64 | 45 | 3.5 | 7.8 | 0.00 | 0.00 | 0.00 | 73 | 1019.2 |
| 20260508200505 | 64 | 45 | 3.5 | 7.0 | 0.00 | 0.00 | 0.00 | 74 | 1019.3 |
| 20260508200025 | 64 | 45 | 3.5 | 7.8 | 0.00 | 0.00 | 0.00 | 74 | 1019.2 |
| 20260508195505 | 64 | 45 | 2.6 | 7.0 | 0.00 | 0.00 | 0.00 | 74 | 1019.2 |
| 20260508195005 | 64 | 45 | 3.5 | 7.0 | 0.00 | 0.00 | 0.00 | 74 | 1019.3 |
| 20260508194545 | 64 | 45 | 3.5 | 8.7 | 0.00 | 0.00 | 0.00 | 74 | 1019.3 |
| 20260508194025 | 65 | 45 | 3.5 | 8.7 | 0.00 | 0.00 | 0.00 | 73 | 1019.4 |
| 20260508193505 | 65 | 45 | 2.6 | 7.0 | 0.00 | 0.00 | 0.00 | 74 | 1019.2 |
| 20260508193005 | 64 | 45 | 2.6 | 7.8 | 0.00 | 0.00 | 0.00 | 74 | 1019.4 |
| 20260508192505 | 64 | 68 | 2.6 | 7.0 | 0.00 | 0.00 | 0.00 | 75 | 1019.5 |
| 20260508192005 | 64 | 68 | 3.5 | 9.6 | 0.00 | 0.00 | 0.00 | 74 | 1019.5 |
| 20260508191505 | 64 | 45 | 3.5 | 9.6 | 0.00 | 0.00 | 0.00 | 73 | 1019.4 |
| 20260508191025 | 64 | 68 | 2.6 | 7.0 | 0.00 | 0.00 | 0.00 | 74 | 1019.5 |
| 20260508190524 | 63 | 68 | 2.6 | 7.0 | 0.00 | 0.00 | 0.00 | 74 | 1019.4 |
| 20260508190005 | 63 | 68 | 2.6 | 7.0 | 0.00 | 0.00 | 0.00 | 73 | 1019.5 |
| 20260508185525 | 63 | 45 | 3.5 | 7.8 | 0.00 | 0.00 | 0.00 | 73 | 1019.5 |
| 20260508185005 | 64 | 45 | 2.6 | 6.1 | 0.00 | 0.00 | 0.00 | 73 | 1019.6 |
| 20260508184505 | 63 | 68 | 2.6 | 5.2 | 0.00 | 0.00 | 0.00 | 73 | 1019.7 |
| 20260508184005 | 63 | 68 | 2.6 | 6.1 | 0.00 | 0.00 | 0.00 | 72 | 1019.6 |
| 20260508183505 | 63 | 68 | 2.6 | 7.0 | 0.00 | 0.00 | 0.00 | 72 | 1019.6 |
| 20260508183004 | 63 | 68 | 2.6 | 7.0 | 0.00 | 0.00 | 0.00 | 71 | 1019.6 |
| 20260508182505 | 63 | 45 | 2.6 | 6.1 | 0.00 | 0.00 | 0.00 | 71 | 1019.8 |
| 20260508182025 | 63 | 45 | 1.7 | 5.2 | 0.00 | 0.00 | 0.00 | 71 | 1019.7 |
| 20260508181505 | 64 | 68 | 2.6 | 6.1 | 0.00 | 0.00 | 0.00 | 70 | 1019.7 |
| 20260508181005 | 64 | 68 | 1.7 | 4.3 | 0.00 | 0.00 | 0.00 | 69 | 1019.7 |
| 20260508180505 | 64 | 68 | 1.7 | 4.3 | 0.00 | 0.00 | 0.00 | 68 | 1019.9 |
| 20260508180025 | 64 | 68 | 1.7 | 4.3 | 0.00 | 0.00 | 0.00 | 68 | 1019.7 |
| 20260508175505 | 63 | 45 | 1.7 | 4.3 | 0.00 | 0.00 | 0.00 | 68 | 1019.8 |
| 20260508175004 | 63 | 68 | 1.7 | 5.2 | 0.00 | 0.00 | 0.00 | 68 | 1019.8 |
| 20260508174505 | 63 | 68 | 1.7 | 5.2 | 0.00 | 0.00 | 0.00 | 69 | 1019.7 |
| 20260508174005 | 63 | 68 | 1.7 | 4.3 | 0.00 | 0.00 | 0.00 | 68 | 1019.7 |
| 20260508173504 | 63 | 45 | 2.6 | 4.3 | 0.00 | 0.00 | 0.00 | 66 | 1019.7 |
| 20260508173005 | 64 | 68 | 1.7 | 4.3 | 0.00 | 0.00 | 0.00 | 66 | 1019.7 |
| 20260508172505 | 64 | 113 | 0.9 | 2.6 | 0.00 | 0.00 | 0.00 | 68 | 1019.7 |
| 20260508172004 | 63 | 113 | 1.7 | 5.2 | 0.00 | 0.00 | 0.00 | 68 | 1019.7 |
| 20260508171505 | 63 | 113 | 1.7 | 3.5 | 0.00 | 0.00 | 0.00 | 69 | 1019.7 |
| 20260508171004 | 62 | 68 | 1.7 | 4.3 | 0.00 | 0.00 | 0.00 | 69 | 1019.7 |
| 20260508170504 | 62 | 45 | 1.7 | 4.3 | 0.00 | 0.00 | 0.00 | 69 | 1019.7 |
| 20260508170005 | 62 | 45 | 1.7 | 3.5 | 0.00 | 0.00 | 0.00 | 69 | 1019.7 |
| 20260508165504 | 62 | 23 | 0.9 | 2.6 | 0.00 | 0.00 | 0.00 | 70 | 1019.7 |
| 20260508165005 | 61 | 45 | 1.7 | 3.5 | 0.00 | 0.00 | 0.00 | 70 | 1019.7 |
| 20260508164505 | 61 | 45 | 1.7 | 3.5 | 0.00 | 0.00 | 0.00 | 70 | 1019.7 |
| 20260508164004 | 61 | 90 | 0.9 | 1.7 | 0.00 | 0.00 | 0.00 | 70 | 1019.6 |
| 20260508163504 | 60 | 180 | 0.9 | 1.7 | 0.00 | 0.00 | 0.00 | 71 | 1019.7 |
| 20260508163005 | 60 | 113 | 0.9 | 1.7 | 0.00 | 0.00 | 0.00 | 72 | 1019.7 |
| 20260508162505 | 59 | 113 | 0.9 | 2.6 | 0.00 | 0.00 | 0.00 | 73 | 1019.8 |
| 20260508162004 | 58 | 0.0 | 1.7 | 0.00 | 0.00 | 0.00 | 74 | 1019.7 | |
| 20260508161545 | 58 | 135 | 0.9 | 1.7 | 0.00 | 0.00 | 0.00 | 74 | 1019.7 |
| 20260508161004 | 57 | 315 | 0.9 | 1.7 | 0.00 | 0.00 | 0.00 | 75 | 1019.7 |
| 20260508160504 | 57 | 45 | 0.9 | 1.7 | 0.00 | 0.00 | 0.00 | 75 | 1019.8 |
| 20260508160005 | 57 | 45 | 0.9 | 2.6 | 0.00 | 0.00 | 0.00 | 74 | 1019.8 |
| 20260508155504 | 58 | 45 | 0.9 | 2.6 | 0.00 | 0.00 | 0.00 | 74 | 1019.8 |
| 20260508155125 | 57 | 45 | 0.9 | 1.7 | 0.00 | 0.00 | 0.00 | 74 | 1019.8 |
| 20260508154505 | 58 | 158 | 0.9 | 1.7 | 0.00 | 0.00 | 0.00 | 73 | 1019.9 |
| 20260508154025 | 57 | 113 | 0.9 | 2.6 | 0.00 | 0.00 | 0.00 | 75 | 1019.9 |
| 20260508153504 | 56 | 45 | 0.9 | 3.5 | 0.00 | 0.00 | 0.00 | 77 | 1019.8 |
| 20260508153004 | 56 | 338 | 0.9 | 1.7 | 0.00 | 0.00 | 0.00 | 76 | 1019.8 |
| 20260508152504 | 56 | 315 | 0.9 | 2.6 | 0.00 | 0.00 | 0.00 | 77 | 1019.8 |
| 20260508152005 | 56 | 45 | 0.9 | 3.5 | 0.00 | 0.00 | 0.00 | 77 | 1019.9 |
| 20260508151524 | 56 | 45 | 0.9 | 2.6 | 0.00 | 0.00 | 0.00 | 78 | 1019.9 |
| 20260508151004 | 55 | 0 | 0.9 | 1.7 | 0.00 | 0.00 | 0.00 | 79 | 1019.8 |
| 20260508150505 | 55 | 203 | 0.9 | 1.7 | 0.00 | 0.00 | 0.00 | 79 | 1019.9 |
| 20260508150005 | 55 | 293 | 0.9 | 2.6 | 0.00 | 0.00 | 0.00 | 79 | 1019.8 |
| 20260508145504 | 55 | 225 | 0.9 | 2.6 | 0.00 | 0.00 | 0.00 | 79 | 1019.9 |
| 20260508145004 | 55 | 225 | 0.9 | 2.6 | 0.00 | 0.00 | 0.00 | 80 | 1019.9 |
| 20260508144524 | 54 | 315 | 0.9 | 2.6 | 0.00 | 0.00 | 0.00 | 80 | 1019.9 |
| 20260508144004 | 54 | 270 | 0.9 | 1.7 | 0.00 | 0.00 | 0.00 | 80 | 1019.9 |
| 20260508143504 | 54 | 248 | 0.9 | 3.5 | 0.00 | 0.00 | 0.00 | 80 | 1019.9 |
| 20260508143004 | 54 | 293 | 0.9 | 1.7 | 0.00 | 0.00 | 0.00 | 81 | 1019.8 |
| 20260508142504 | 54 | 315 | 0.9 | 2.6 | 0.00 | 0.00 | 0.00 | 81 | 1019.8 |
| 20260508142005 | 54 | 315 | 0.9 | 1.7 | 0.00 | 0.00 | 0.00 | 81 | 1019.8 |
| 20260508141504 | 54 | 315 | 0.9 | 1.7 | 0.00 | 0.00 | 0.00 | 81 | 1019.7 |
| 20260508141004 | 54 | 338 | 0.9 | 1.7 | 0.00 | 0.00 | 0.00 | 82 | 1019.7 |
| 20260508140504 | 54 | 45 | 0.9 | 2.6 | 0.00 | 0.00 | 0.00 | 82 | 1019.6 |
| 20260508140024 | 54 | 338 | 1.7 | 3.5 | 0.00 | 0.00 | 0.00 | 81 | 1019.5 |
| 20260508135504 | 54 | 23 | 0.9 | 2.6 | 0.00 | 0.00 | 0.00 | 82 | 1019.3 |
| 20260508135004 | 54 | 45 | 1.7 | 3.5 | 0.00 | 0.00 | 0.00 | 82 | 1019.4 |
| 20260508134505 | 54 | 338 | 0.9 | 2.6 | 0.00 | 0.00 | 0.00 | 82 | 1019.4 |
| 20260508134004 | 54 | 338 | 0.9 | 3.5 | 0.00 | 0.00 | 0.00 | 82 | 1019.3 |
| 20260508133504 | 54 | 45 | 0.9 | 1.7 | 0.00 | 0.00 | 0.00 | 82 | 1019.2 |
| 20260508133004 | 54 | 338 | 0.9 | 2.6 | 0.00 | 0.00 | 0.00 | 82 | 1019.3 |
| 20260508132505 | 54 | 338 | 0.9 | 2.6 | 0.00 | 0.00 | 0.00 | 82 | 1019.2 |
| 20260508132024 | 54 | 45 | 0.9 | 2.6 | 0.00 | 0.00 | 0.00 | 82 | 1019.2 |
| 20260508131504 | 54 | 338 | 0.9 | 2.6 | 0.00 | 0.00 | 0.00 | 82 | 1019.4 |
| 20260508131004 | 54 | 315 | 0.9 | 1.7 | 0.00 | 0.00 | 0.00 | 82 | 1019.2 |
| 20260508130504 | 54 | 0.0 | 1.7 | 0.00 | 0.00 | 0.00 | 82 | 1019.2 | |
| 20260508130024 | 54 | 0.0 | 0.9 | 0.00 | 0.00 | 0.00 | 82 | 1019.1 | |
| 20260508125504 | 54 | 45 | 0.9 | 1.7 | 0.00 | 0.00 | 0.00 | 82 | 1019.1 |
| 20260508125004 | 54 | 0.0 | 1.7 | 0.00 | 0.00 | 0.00 | 82 | 1019.1 | |
| 20260508124524 | 54 | 0.0 | 0.9 | 0.00 | 0.00 | 0.00 | 82 | 1019.1 | |
| 20260508124004 | 54 | 0.0 | 1.7 | 0.00 | 0.00 | 0.00 | 82 | 1019.1 | |
| 20260508123504 | 54 | 45 | 0.9 | 1.7 | 0.00 | 0.00 | 0.00 | 82 | 1019.2 |
| 20260508123004 | 54 | 0.0 | 0.9 | 0.00 | 0.00 | 0.00 | 82 | 1019.1 | |
| 20260508122504 | 54 | 338 | 0.9 | 2.6 | 0.00 | 0.00 | 0.00 | 82 | 1019.2 |
| 20260508122004 | 54 | 0.0 | 0.9 | 0.00 | 0.00 | 0.00 | 82 | 1019.1 | |
| 20260508121504 | 54 | 0.0 | 1.7 | 0.00 | 0.00 | 0.00 | 82 | 1019.2 | |
| 20260508121004 | 54 | 338 | 0.9 | 2.6 | 0.00 | 0.00 | 0.00 | 82 | 1019.1 |
| 20260508120503 | 54 | 338 | 0.9 | 3.5 | 0.00 | 0.00 | 0.00 | 82 | 1019.3 |
| 20260508120004 | 54 | 338 | 0.9 | 2.6 | 0.00 | 0.00 | 0.00 | 82 | 1019.2 |
| 20260508115503 | 54 | 338 | 1.7 | 3.5 | 0.00 | 0.00 | 0.00 | 82 | 1019.2 |
| 20260508115004 | 54 | 338 | 1.7 | 3.5 | 0.00 | 0.00 | 0.00 | 82 | 1019.2 |
| 20260508114503 | 54 | 338 | 0.9 | 1.7 | 0.00 | 0.00 | 0.00 | 82 | 1019.2 |
| 20260508114009 | 54 | 338 | 0.9 | 2.6 | 0.00 | 0.00 | 0.00 | 82 | 1019.2 |
| 20260508113524 | 54 | 338 | 0.9 | 2.6 | 0.00 | 0.00 | 0.00 | 82 | 1019.2 |
| 20260508113004 | 54 | 338 | 0.9 | 2.6 | 0.00 | 0.00 | 0.00 | 82 | 1019.1 |
| 20260508112503 | 54 | 338 | 0.9 | 2.6 | 0.00 | 0.00 | 0.00 | 82 | 1019.1 |
| 20260508112004 | 54 | 338 | 1.7 | 3.5 | 0.00 | 0.00 | 0.00 | 82 | 1019.0 |
| 20260508111503 | 54 | 315 | 1.7 | 3.5 | 0.00 | 0.00 | 0.00 | 82 | 1019.0 |
| 20260508111003 | 54 | 338 | 0.9 | 3.5 | 0.00 | 0.00 | 0.00 | 82 | 1019.1 |
| 20260508110504 | 55 | 315 | 1.7 | 3.5 | 0.00 | 0.00 | 0.00 | 82 | 1019.1 |
| 20260508110003 | 55 | 338 | 0.9 | 3.5 | 0.00 | 0.00 | 0.00 | 83 | 1019.0 |
| 20260508105504 | 55 | 315 | 0.9 | 2.6 | 0.00 | 0.00 | 0.00 | 83 | 1019.1 |
| 20260508105003 | 55 | 315 | 0.9 | 3.5 | 0.00 | 0.00 | 0.00 | 83 | 1019.1 |
| 20260508104504 | 55 | 338 | 0.9 | 2.6 | 0.00 | 0.00 | 0.00 | 83 | 1019.0 |
| 20260508104004 | 55 | 315 | 0.9 | 1.7 | 0.00 | 0.00 | 0.00 | 83 | 1019.0 |
| 20260508103503 | 55 | 315 | 0.9 | 1.7 | 0.00 | 0.00 | 0.00 | 83 | 1019.0 |
| 20260508103003 | 55 | 45 | 0.9 | 2.6 | 0.00 | 0.00 | 0.00 | 83 | 1019.1 |
| 20260508102503 | 55 | 338 | 0.9 | 2.6 | 0.00 | 0.00 | 0.00 | 83 | 1019.1 |
| 20260508102003 | 55 | 315 | 0.9 | 2.6 | 0.00 | 0.00 | 0.00 | 83 | 1019.0 |
| 20260508101503 | 55 | 315 | 0.9 | 1.7 | 0.00 | 0.00 | 0.00 | 83 | 1019.0 |
| 20260508101003 | 55 | 45 | 0.9 | 1.7 | 0.00 | 0.00 | 0.00 | 83 | 1019.0 |
| 20260508100503 | 55 | 45 | 0.9 | 2.6 | 0.00 | 0.00 | 0.00 | 83 | 1018.9 |
| 20260508100004 | 55 | 45 | 0.9 | 2.6 | 0.00 | 0.00 | 0.00 | 83 | 1018.8 |
| 20260508095503 | 55 | 338 | 0.9 | 2.6 | 0.00 | 0.00 | 0.00 | 83 | 1018.8 |
| 20260508095003 | 55 | 338 | 0.9 | 3.5 | 0.00 | 0.00 | 0.00 | 83 | 1018.9 |
| 20260508094523 | 55 | 45 | 1.7 | 3.5 | 0.00 | 0.00 | 0.00 | 83 | 1018.9 |
| 20260508094003 | 55 | 338 | 1.7 | 3.5 | 0.00 | 0.00 | 0.00 | 83 | 1018.8 |
| 20260508093523 | 55 | 45 | 1.7 | 3.5 | 0.00 | 0.00 | 0.00 | 83 | 1018.8 |
| 20260508093003 | 55 | 338 | 0.9 | 2.6 | 0.00 | 0.00 | 0.00 | 83 | 1018.9 |
| 20260508092503 | 55 | 338 | 0.9 | 3.5 | 0.00 | 0.00 | 0.00 | 83 | 1018.9 |
| 20260508092003 | 55 | 45 | 0.9 | 2.6 | 0.00 | 0.00 | 0.00 | 83 | 1018.9 |
| 20260508091523 | 55 | 45 | 0.9 | 3.5 | 0.00 | 0.00 | 0.00 | 83 | 1018.9 |
| 20260508091003 | 55 | 338 | 0.9 | 3.5 | 0.00 | 0.00 | 0.00 | 83 | 1018.9 |
| 20260508090523 | 55 | 23 | 1.7 | 3.5 | 0.00 | 0.00 | 0.00 | 84 | 1018.9 |
| 20260508090003 | 55 | 315 | 0.9 | 3.5 | 0.00 | 0.00 | 0.00 | 84 | 1018.8 |
| 20260508085504 | 55 | 338 | 0.9 | 1.7 | 0.00 | 0.00 | 0.00 | 84 | 1018.9 |
| 20260508085003 | 55 | 338 | 0.9 | 2.6 | 0.00 | 0.00 | 0.00 | 84 | 1019.0 |
| 20260508084504 | 55 | 338 | 0.9 | 2.6 | 0.00 | 0.00 | 0.00 | 84 | 1019.0 |
| 20260508084003 | 55 | 45 | 0.9 | 2.6 | 0.00 | 0.00 | 0.00 | 84 | 1018.9 |
| 20260508083523 | 55 | 45 | 0.9 | 2.6 | 0.00 | 0.00 | 0.00 | 84 | 1019.0 |
| 20260508083003 | 55 | 315 | 0.9 | 1.7 | 0.00 | 0.00 | 0.00 | 85 | 1019.0 |
| 20260508082523 | 55 | 315 | 0.9 | 2.6 | 0.00 | 0.00 | 0.00 | 85 | 1019.1 |
| 20260508082003 | 55 | 338 | 0.9 | 2.6 | 0.00 | 0.00 | 0.00 | 85 | 1019.0 |
| 20260508081503 | 54 | 45 | 0.9 | 3.5 | 0.00 | 0.00 | 0.00 | 85 | 1019.1 |
| 20260508081003 | 54 | 338 | 1.7 | 3.5 | 0.00 | 0.00 | 0.00 | 85 | 1019.1 |
| 20260508080523 | 54 | 338 | 1.7 | 4.3 | 0.00 | 0.00 | 0.00 | 86 | 1019.2 |
| 20260508080003 | 54 | 45 | 0.9 | 3.5 | 0.00 | 0.00 | 0.00 | 86 | 1019.1 |
| 20260508075503 | 54 | 315 | 1.7 | 4.3 | 0.00 | 0.00 | 0.00 | 87 | 1019.1 |
| 20260508075003 | 54 | 338 | 0.9 | 4.3 | 0.00 | 0.00 | 0.00 | 87 | 1019.1 |
| 20260508074503 | 54 | 315 | 0.9 | 3.5 | 0.00 | 0.00 | 0.00 | 88 | 1019.1 |
| 20260508074003 | 54 | 315 | 0.9 | 2.6 | 0.00 | 0.00 | 0.00 | 88 | 1019.0 |
| 20260508073523 | 54 | 315 | 0.9 | 2.6 | 0.00 | 0.00 | 0.00 | 89 | 1019.0 |
| 20260508073003 | 54 | 315 | 0.9 | 3.5 | 0.00 | 0.00 | 0.00 | 89 | 1019.0 |
| 20260508072503 | 54 | 338 | 0.9 | 2.6 | 0.00 | 0.00 | 0.00 | 89 | 1018.9 |
| 20260508072003 | 53 | 338 | 0.9 | 2.6 | 0.00 | 0.00 | 0.00 | 89 | 1019.0 |
| 20260508071523 | 53 | 315 | 0.9 | 2.6 | 0.00 | 0.00 | 0.00 | 89 | 1018.9 |
| 20260508071003 | 53 | 315 | 0.9 | 2.6 | 0.00 | 0.00 | 0.00 | 89 | 1019.0 |
| 20260508070503 | 53 | 315 | 0.9 | 1.7 | 0.00 | 0.00 | 0.00 | 89 | 1019.0 |
| 20260508070025 | 53 | 338 | 0.9 | 1.7 | 0.00 | 0.00 | 0.00 | 88 | 1019.0 |
| 20260508065503 | 53 | 315 | 0.9 | 0.9 | 0.00 | 0.00 | 0.00 | 88 | 1019.0 |
| 20260508065003 | 53 | 0.0 | 0.9 | 0.00 | 0.00 | 0.00 | 88 | 1019.0 | |
| 20260508064503 | 53 | 0.0 | 0.9 | 0.00 | 0.00 | 0.00 | 88 | 1019.0 | |
| 20260508064003 | 53 | 0.0 | 1.7 | 0.00 | 0.00 | 0.00 | 87 | 1019.0 | |
| 20260508063503 | 53 | 0.0 | 0.9 | 0.00 | 0.00 | 0.00 | 87 | 1019.0 | |
| 20260508063003 | 53 | 0.0 | 1.7 | 0.00 | 0.00 | 0.00 | 88 | 1019.1 | |
| 20260508062503 | 53 | 293 | 0.9 | 1.7 | 0.00 | 0.00 | 0.00 | 87 | 1019.0 |
| 20260508062003 | 53 | 0.0 | 0.9 | 0.00 | 0.00 | 0.00 | 87 | 1019.0 | |
| 20260508061523 | 53 | 0.0 | 1.7 | 0.00 | 0.00 | 0.00 | 87 | 1018.9 | |
| 20260508061003 | 53 | 0.0 | 1.7 | 0.00 | 0.00 | 0.00 | 87 | 1018.8 | |
| 20260508060503 | 53 | 0.0 | 0.9 | 0.00 | 0.00 | 0.00 | 87 | 1018.7 | |
| 20260508060003 | 53 | 0.0 | 0.9 | 0.00 | 0.00 | 0.00 | 87 | 1018.7 |